Weather in Neplyuyevka

Russia / Chelyabinsk Oblast     52°54′07″N   60°07′14″E
temp.,
°C
wind,
m/s
gust,
m/s
humid.,
%
clouds,
%
prec.,
mm/h
press.,
hPa
HPBL,
m
18 january, mon
mon1823:00−19wsw479425 0.0 101696
02:00−20w45930 0.0 101776
05:00−21w44910 0.0 101852
08:00−21nw33870 0.0 101920
11:00−19nne33860 0.0 102055
14:00−16ese23873 0.0 1021145
17:00−20e23875 0.0 102220
20:00−21ese228967 0.0 102220
19 january, tue
tue1923:00−20e228883 0.0 102220
02:00−19e2390100 0.0 102257
05:00−17e2393100 0.1 1021131
08:00−18e3592100 0.0 1021175
11:00−17e5797100 0.6 1021240
14:00−16ene5795100 0.4 1020253
17:00−17ene4896100 0.5 1018273
20:00−17ene61095100 0.0 1018274
20 january, wed
wed2023:00−16ene4697100 0.8 1017261
02:00−16ene3597100 2.3 1015262
05:00−17n2297100 4.1 1014136
08:00−17wnw349799 0.3 101498
11:00−19w599667 0.3 1015197
14:00−16wsw610890 0.0 1015316
17:00−17wsw610930 0.0 1016197
20:00−19wsw510940 0.0 1018166
21 january, thu
thu2123:00−22wsw610940 0.0 1019167
02:00−24wsw610940 0.0 1019181
05:00−21wsw7139132 0.0 1019389
08:00−22wsw7148984 0.0 1019330
11:00−21w6118872 0.0 1020272
14:00−19w588819 0.0 1020254
17:00−20w47909 0.0 1020118
20:00−21w47900 0.0 102292
22 january, fri
fri2223:00−21w459030 0.0 102280
02:00−22w58931 0.0 1022115
05:00−20wsw6109236 0.0 1020187
08:00−19wsw61193100 0.0 1018232
11:00−17sw91793100 0.2 1015551
14:00−14sw121993100 1.1 1012961
17:00−15w91589100 2.5 1012837
20:00−16wsw61586100 0.0 1014471